QPF
0.05 0.05 0.05 0.05 0.05 0.06 0.08 0.09 0.11 0.12 0.11 0.11 0.08 0.05 0.06 0.06 0.07 0.07 0.10 0.12 0.09 0.08 0.05 0.04 0.05 0.05 0.07 0.05 0.04 0.04 0.03 0.02 0.03 0.04 0.04 0.05 0.05 0.06
0.07 0.06 0.06 0.07 0.08 0.06 0.08 0.11 0.13 0.14 0.12 0.10 0.08 0.06 0.05 0.06 0.10 0.09 0.13 0.14 0.12 0.10 0.08 0.07 0.07 0.07 0.07 0.06 0.04 0.03 0.03 0.03 0.02 0.03 0.04 0.04 0.04 0.03
0.08 0.09 0.08 0.07 0.08 0.07 0.06 0.07 0.09 0.11 0.11 0.09 0.07 0.06 0.06 0.07 0.09 0.09 0.10 0.11 0.10 0.10 0.09 0.09 0.07 0.05 0.06 0.06 0.03 0.02 0.02 0.02 0.01 0.02 0.02 0.03 0.04 0.04
0.08 0.10 0.11 0.10 0.11 0.10 0.08 0.07 0.08 0.09 0.11 0.12 0.10 0.10 0.10 0.07 0.07 0.06 0.07 0.09 0.12 0.11 0.08 0.08 0.08 0.07 0.06 0.06 0.05 0.03 0.02 0.01 0.01 0.02 0.02 0.02 0.02 0.02
0.09 0.08 0.08 0.09 0.11 0.11 0.09 0.08 0.07 0.07 0.10 0.11 0.09 0.11 0.10 0.07 0.08 0.07 0.07 0.10 0.12 0.12 0.09 0.08 0.08 0.06 0.06 0.06 0.05 0.04 0.03 0.02 0.01 0.01 0.01 0.02 0.02 0.02
0.07 0.06 0.05 0.07 0.08 0.09 0.09 0.09 0.08 0.10 0.09 0.09 0.09 0.09 0.08 0.07 0.09 0.09 0.10 0.10 0.11 0.12 0.08 0.07 0.06 0.05 0.04 0.04 0.04 0.04 0.03 0.03 0.02 0.01 0.01 0.01 0.01 0.01
0.06 0.06 0.05 0.04 0.05 0.05 0.06 0.08 0.08 0.08 0.08 0.08 0.07 0.07 0.07 0.06 0.06 0.07 0.08 0.10 0.11 0.12 0.08 0.05 0.05 0.05 0.05 0.04 0.03 0.04 0.04 0.04 0.04 0.02 0.01 0.01 0.01 0.00
0.07 0.06 0.04 0.03 0.03 0.03 0.03 0.04 0.04 0.04 0.05 0.05 0.06 0.06 0.07 0.06 0.05 0.05 0.07 0.09 0.10 0.12 0.08 0.07 0.06 0.05 0.04 0.03 0.04 0.03 0.02 0.03 0.03 0.03 0.03 0.03 0.02 0.01
0.05 0.05 0.03 0.03 0.03 0.02 0.02 0.01 0.01 0.01 0.02 0.03 0.05 0.05 0.05 0.05 0.05 0.05 0.08 0.10 0.09 0.11 0.10 0.09 0.09 0.07 0.04 0.03 0.03 0.03 0.02 0.02 0.03 0.03 0.03 0.03 0.04 0.04
0.04 0.04 0.04 0.04 0.03 0.03 0.02 0.02 0.02 0.01 0.01 0.02 0.03 0.03 0.03 0.04 0.05 0.05 0.09 0.13 0.13 0.13 0.11 0.10 0.08 0.07 0.06 0.04 0.02 0.02 0.02 0.02 0.02 0.03 0.03 0.03 0.04 0.04
0.04 0.04 0.04 0.04 0.04 0.04 0.03 0.04 0.04 0.02 0.01 0.01 0.01 0.02 0.01 0.02 0.02 0.05 0.07 0.12 0.14 0.13 0.11 0.10 0.08 0.06 0.06 0.05 0.03 0.02 0.01 0.01 0.01 0.02 0.02 0.03 0.04 0.04
0.04 0.04 0.04 0.04 0.05 0.04 0.04 0.04 0.05 0.03 0.02 0.02 0.02 0.02 0.02 0.02 0.02 0.04 0.06 0.09 0.11 0.11 0.09 0.07 0.07 0.06 0.06 0.05 0.03 0.02 0.01 0.01 0.00 0.01 0.01 0.02 0.03 0.03
0.04 0.05 0.03 0.02 0.02 0.02 0.03 0.04 0.05 0.05 0.04 0.03 0.04 0.04 0.05 0.04 0.04 0.04 0.06 0.08 0.10 0.08 0.07 0.06 0.06 0.06 0.06 0.05 0.04 0.02 0.02 0.02 0.01 0.01 0.01 0.01 0.02 0.02
0.03 0.04 0.03 0.02 0.02 0.01 0.01 0.02 0.04 0.04 0.05 0.06 0.05 0.04 0.05 0.05 0.05 0.05 0.06 0.08 0.09 0.08 0.07 0.07 0.08 0.07 0.07 0.06 0.06 0.05 0.04 0.04 0.03 0.02 0.02 0.01 0.01 0.01
0.02 0.03 0.02 0.01 0.01 0.01 0.01 0.01 0.02 0.03 0.05 0.06 0.06 0.05 0.05 0.05 0.06 0.07 0.06 0.07 0.09 0.08 0.07 0.07 0.08 0.10 0.10 0.08 0.07 0.07 0.06 0.06 0.04 0.03 0.03 0.03 0.02 0.01
0.02 0.01 0.01 0.01 0.01 0.01 0.01 0.01 0.02 0.02 0.03 0.04 0.05 0.07 0.06 0.06 0.06 0.06 0.07 0.07 0.08 0.08 0.07 0.08 0.08 0.10 0.11 0.09 0.09 0.08 0.06 0.05 0.05 0.05 0.05 0.05 0.03 0.02
0.02 0.02 0.02 0.01 0.01 0.01 0.02 0.03 0.02 0.02 0.03 0.05 0.06 0.07 0.06 0.05 0.04 0.04 0.04 0.05 0.06 0.07 0.08 0.08 0.09 0.08 0.09 0.11 0.09 0.07 0.06 0.06 0.06 0.05 0.05 0.05 0.02 0.01
0.01 0.01 0.02 0.02 0.02 0.02 0.02 0.02 0.03 0.03 0.04 0.05 0.06 0.06 0.07 0.06 0.04 0.03 0.04 0.04 0.05 0.04 0.05 0.06 0.09 0.09 0.08 0.09 0.06 0.06 0.06 0.06 0.06 0.05 0.04 0.03 0.02 0.02
0.01 0.01 0.02 0.03 0.04 0.04 0.04 0.05 0.05 0.05 0.05 0.05 0.06 0.06 0.06 0.06 0.04 0.03 0.03 0.04 0.03 0.03 0.03 0.05 0.07 0.09 0.06 0.05 0.05 0.03 0.05 0.06 0.06 0.05 0.04 0.03 0.03 0.02
0.01 0.02 0.02 0.03 0.04 0.05 0.05 0.05 0.05 0.05 0.04 0.05 0.05 0.06 0.06 0.06 0.05 0.04 0.03 0.03 0.03 0.03 0.04 0.04 0.05 0.07 0.08 0.07 0.05 0.04 0.02 0.03 0.05 0.05 0.05 0.04 0.04 0.04
0.02 0.02 0.03 0.03 0.04 0.04 0.04 0.05 0.04 0.05 0.05 0.06 0.06 0.06 0.06 0.06 0.06 0.04 0.03 0.05 0.05 0.03 0.03 0.03 0.03 0.06 0.08 0.09 0.07 0.05 0.02 0.02 0.03 0.05 0.06 0.06 0.06 0.05
0.03 0.03 0.03 0.03 0.03 0.03 0.03 0.05 0.08 0.08 0.08 0.09 0.08 0.06 0.06 0.06 0.05 0.03 0.04 0.05 0.04 0.03 0.04 0.03 0.03 0.05 0.08 0.09 0.07 0.05 0.03 0.02 0.02 0.03 0.03 0.05 0.07 0.07
0.04 0.04 0.03 0.03 0.02 0.02 0.03 0.04 0.05 0.07 0.07 0.07 0.08 0.07 0.05 0.04 0.03 0.03 0.04 0.04 0.03 0.02 0.03 0.02 0.03 0.05 0.06 0.08 0.07 0.06 0.04 0.03 0.03 0.03 0.02 0.02 0.03 0.03
MSLP
1009.01 1008.72 1008.46 1008.22 1007.99 1007.75 1007.50 1007.23 1006.96 1006.71 1006.50 1006.35 1006.26 1006.25 1006.29 1006.37 1006.47 1006.56 1006.64 1006.70 1006.72 1006.72 1006.70 1006.63 1006.52 1006.34 1006.07 1005.69 1005.19 1004.59 1003.90 1003.18 1002.47 1001.83 1001.32 1000.98 1000.83 1000.86
1009.42 1009.13 1008.85 1008.59 1008.33 1008.06 1007.78 1007.49 1007.20 1006.93 1006.70 1006.53 1006.42 1006.38 1006.39 1006.43 1006.50 1006.56 1006.62 1006.66 1006.68 1006.70 1006.70 1006.69 1006.65 1006.55 1006.38 1006.10 1005.72 1005.22 1004.64 1004.00 1003.34 1002.73 1002.20 1001.80 1001.55 1001.44
1009.72 1009.42 1009.14 1008.86 1008.59 1008.32 1008.03 1007.74 1007.46 1007.19 1006.96 1006.77 1006.64 1006.57 1006.53 1006.53 1006.54 1006.55 1006.56 1006.56 1006.57 1006.58 1006.60 1006.63 1006.65 1006.64 1006.58 1006.43 1006.17 1005.81 1005.34 1004.80 1004.22 1003.64 1003.12 1002.68 1002.34 1002.12
1009.92 1009.61 1009.33 1009.06 1008.79 1008.53 1008.26 1007.99 1007.72 1007.47 1007.24 1007.05 1006.90 1006.80 1006.72 1006.65 1006.60 1006.55 1006.49 1006.45 1006.42 1006.42 1006.45 1006.51 1006.59 1006.66 1006.69 1006.66 1006.52 1006.29 1005.94 1005.50 1005.00 1004.48 1003.97 1003.50 1003.12 1002.81
1010.05 1009.74 1009.45 1009.19 1008.95 1008.70 1008.46 1008.21 1007.97 1007.73 1007.52 1007.33 1007.17 1007.03 1006.91 1006.79 1006.68 1006.56 1006.45 1006.36 1006.29 1006.27 1006.30 1006.38 1006.50 1006.63 1006.75 1006.81 1006.78 1006.65 1006.41 1006.07 1005.65 1005.18 1004.69 1004.23 1003.81 1003.45
1010.14 1009.83 1009.55 1009.30 1009.07 1008.85 1008.63 1008.41 1008.18 1007.96 1007.76 1007.56 1007.39 1007.22 1007.07 1006.91 1006.75 1006.59 1006.43 1006.30 1006.20 1006.16 1006.19 1006.29 1006.43 1006.61 1006.78 1006.92 1006.97 1006.93 1006.77 1006.51 1006.16 1005.74 1005.29 1004.84 1004.42 1004.04
1010.22 1009.90 1009.63 1009.39 1009.18 1008.98 1008.77 1008.56 1008.35 1008.14 1007.93 1007.73 1007.54 1007.35 1007.17 1006.98 1006.79 1006.60 1006.42 1006.26 1006.15 1006.11 1006.14 1006.24 1006.41 1006.61 1006.82 1007.01 1007.12 1007.14 1007.05 1006.85 1006.56 1006.19 1005.78 1005.36 1004.96 1004.59
1010.28 1009.97 1009.70 1009.48 1009.28 1009.08 1008.88 1008.67 1008.46 1008.23 1008.01 1007.80 1007.59 1007.39 1007.19 1006.99 1006.79 1006.59 1006.41 1006.25 1006.14 1006.10 1006.13 1006.24 1006.42 1006.64 1006.87 1007.08 1007.23 1007.29 1007.25 1007.11 1006.87 1006.55 1006.19 1005.82 1005.45 1005.12
1010.31 1010.01 1009.76 1009.55 1009.35 1009.15 1008.94 1008.72 1008.49 1008.25 1008.01 1007.77 1007.56 1007.34 1007.14 1006.94 1006.75 1006.56 1006.39 1006.24 1006.14 1006.11 1006.15 1006.26 1006.44 1006.67 1006.90 1007.13 1007.29 1007.39 1007.38 1007.29 1007.10 1006.85 1006.55 1006.23 1005.92 1005.63
1010.29 1010.01 1009.77 1009.56 1009.36 1009.15 1008.93 1008.69 1008.43 1008.17 1007.91 1007.67 1007.43 1007.22 1007.03 1006.84 1006.67 1006.50 1006.35 1006.23 1006.15 1006.12 1006.16 1006.27 1006.44 1006.65 1006.88 1007.10 1007.28 1007.39 1007.42 1007.37 1007.25 1007.06 1006.83 1006.59 1006.35 1006.13
1010.21 1009.94 1009.71 1009.50 1009.29 1009.07 1008.83 1008.57 1008.29 1008.01 1007.74 1007.49 1007.26 1007.06 1006.88 1006.72 1006.57 1006.43 1006.31 1006.21 1006.14 1006.12 1006.15 1006.24 1006.38 1006.57 1006.78 1006.98 1007.15 1007.28 1007.34 1007.34 1007.28 1007.17 1007.03 1006.88 1006.72 1006.58
1010.07 1009.81 1009.58 1009.36 1009.13 1008.89 1008.63 1008.35 1008.06 1007.77 1007.50 1007.26 1007.05 1006.87 1006.73 1006.60 1006.49 1006.38 1006.28 1006.19 1006.12 1006.09 1006.10 1006.15 1006.25 1006.40 1006.57 1006.74 1006.90 1007.04 1007.13 1007.18 1007.19 1007.17 1007.13 1007.07 1007.02 1006.98
1009.89 1009.62 1009.38 1009.14 1008.89 1008.63 1008.35 1008.06 1007.76 1007.48 1007.23 1007.01 1006.83 1006.70 1006.59 1006.51 1006.43 1006.36 1006.28 1006.19 1006.11 1006.05 1006.02 1006.02 1006.07 1006.15 1006.26 1006.40 1006.54 1006.67 1006.79 1006.90 1006.98 1007.05 1007.11 1007.17 1007.23 1007.29
1009.71 1009.43 1009.15 1008.89 1008.61 1008.32 1008.03 1007.72 1007.43 1007.17 1006.94 1006.76 1006.63 1006.55 1006.50 1006.46 1006.43 1006.38 1006.32 1006.23 1006.13 1006.03 1005.94 1005.88 1005.85 1005.86 1005.91 1006.00 1006.11 1006.24 1006.38 1006.53 1006.68 1006.84 1007.01 1007.18 1007.36 1007.53
1009.59 1009.28 1008.98 1008.67 1008.36 1008.04 1007.73 1007.42 1007.13 1006.89 1006.70 1006.57 1006.49 1006.46 1006.47 1006.48 1006.49 1006.47 1006.41 1006.32 1006.19 1006.05 1005.90 1005.77 1005.66 1005.60 1005.58 1005.61 1005.68 1005.80 1005.96 1006.14 1006.36 1006.61 1006.87 1007.15 1007.43 1007.70
1009.59 1009.25 1008.91 1008.56 1008.22 1007.87 1007.53 1007.22 1006.94 1006.72 1006.56 1006.47 1006.44 1006.46 1006.52 1006.58 1006.62 1006.62 1006.58 1006.47 1006.32 1006.13 1005.92 1005.72 1005.54 1005.40 1005.31 1005.29 1005.33 1005.43 1005.60 1005.82 1006.09 1006.41 1006.75 1007.12 1007.50 1007.85
1009.73 1009.38 1009.01 1008.64 1008.26 1007.89 1007.53 1007.20 1006.93 1006.71 1006.58 1006.52 1006.52 1006.59 1006.68 1006.77 1006.84 1006.86 1006.81 1006.70 1006.52 1006.29 1006.03 1005.77 1005.52 1005.31 1005.17 1005.09 1005.10 1005.19 1005.36 1005.60 1005.92 1006.29 1006.71 1007.15 1007.59 1008.01
1010.04 1009.69 1009.33 1008.95 1008.56 1008.16 1007.79 1007.45 1007.17 1006.95 1006.82 1006.76 1006.79 1006.86 1006.97 1007.07 1007.14 1007.16 1007.11 1006.98 1006.78 1006.52 1006.21 1005.90 1005.60 1005.34 1005.14 1005.03 1005.01 1005.09 1005.27 1005.53 1005.88 1006.30 1006.76 1007.25 1007.74 1008.19
1010.51 1010.20 1009.85 1009.49 1009.10 1008.71 1008.33 1007.98 1007.68 1007.45 1007.30 1007.24 1007.24 1007.30 1007.39 1007.47 1007.53 1007.53 1007.46 1007.30 1007.07 1006.77 1006.43 1006.08 1005.74 1005.44 1005.21 1005.07 1005.04 1005.12 1005.30 1005.58 1005.96 1006.41 1006.90 1007.43 1007.94 1008.42
1011.09 1010.84 1010.55 1010.23 1009.87 1009.50 1009.12 1008.77 1008.46 1008.21 1008.02 1007.92 1007.88 1007.89 1007.93 1007.96 1007.97 1007.92 1007.81 1007.61 1007.34 1007.01 1006.64 1006.25 1005.88 1005.56 1005.31 1005.16 1005.12 1005.20 1005.39 1005.70 1006.10 1006.57 1007.09 1007.63 1008.16 1008.65
1011.73 1011.57 1011.36 1011.10 1010.80 1010.47 1010.12 1009.77 1009.44 1009.16 1008.93 1008.76 1008.65 1008.59 1008.54 1008.50 1008.42 1008.30 1008.12 1007.87 1007.55 1007.18 1006.77 1006.35 1005.96 1005.63 1005.37 1005.22 1005.18 1005.27 1005.49 1005.81 1006.24 1006.74 1007.28 1007.83 1008.37 1008.85
1012.38 1012.31 1012.20 1012.03 1011.80 1011.52 1011.21 1010.87 1010.54 1010.22 1009.94 1009.70 1009.50 1009.33 1009.17 1009.02 1008.84 1008.62 1008.36 1008.03 1007.65 1007.23 1006.79 1006.35 1005.95 1005.60 1005.35 1005.21 1005.19 1005.30 1005.53 1005.89 1006.33 1006.85 1007.41 1007.98 1008.52 1009.01
1012.99 1013.02 1013.00 1012.91 1012.77 1012.55 1012.28 1011.97 1011.63 1011.28 1010.94 1010.62 1010.31 1010.03 1009.75 1009.47 1009.17 1008.84 1008.47 1008.07 1007.62 1007.15 1006.68 1006.23 1005.82 1005.48 1005.24 1005.12 1005.13 1005.27 1005.53 1005.91 1006.38 1006.92 1007.50 1008.08 1008.63 1009.11
Thickness
5727 5725 5724 5725 5726 5726 5725 5723 5716 5710 5713 5720 5724 5729 5730 5729 5727 5726 5724 5723 5720 5720 5719 5718 5717 5715 5713 5711 5709 5708 5706 5705 5703 5702 5700 5699 5698 5697
5723 5721 5720 5721 5721 5722 5721 5721 5719 5713 5710 5716 5719 5722 5724 5724 5721 5720 5719 5718 5715 5715 5714 5713 5712 5710 5708 5706 5705 5703 5701 5700 5698 5697 5695 5694 5692 5692
5719 5718 5716 5716 5714 5715 5716 5716 5715 5713 5707 5710 5714 5716 5717 5717 5715 5714 5713 5712 5711 5710 5709 5707 5706 5705 5703 5701 5699 5698 5696 5694 5692 5691 5689 5688 5687 5686
5715 5714 5712 5712 5710 5710 5710 5710 5710 5709 5706 5703 5706 5708 5709 5710 5710 5709 5709 5708 5706 5704 5703 5702 5700 5699 5697 5696 5694 5692 5691 5689 5687 5685 5684 5682 5681 5680
5712 5710 5708 5707 5704 5705 5704 5704 5704 5705 5703 5700 5699 5701 5702 5704 5703 5702 5703 5701 5700 5699 5697 5695 5694 5693 5691 5690 5688 5687 5685 5683 5681 5680 5678 5676 5675 5674
5709 5707 5705 5703 5701 5700 5700 5699 5698 5697 5697 5696 5694 5694 5695 5697 5696 5694 5692 5693 5693 5693 5692 5690 5688 5686 5685 5683 5682 5681 5679 5677 5675 5674 5672 5671 5669 5668
5704 5702 5700 5698 5696 5695 5695 5693 5692 5690 5690 5689 5687 5688 5688 5688 5687 5688 5686 5686 5686 5686 5685 5684 5682 5680 5678 5676 5675 5674 5672 5671 5669 5668 5666 5665 5664 5662
5698 5696 5694 5692 5690 5688 5687 5687 5686 5684 5682 5681 5681 5680 5681 5682 5682 5682 5680 5678 5676 5679 5678 5677 5677 5675 5672 5670 5669 5668 5666 5664 5663 5661 5660 5659 5658 5657
5693 5690 5689 5687 5684 5682 5680 5679 5678 5678 5678 5676 5675 5674 5675 5676 5676 5674 5674 5673 5672 5673 5671 5669 5670 5668 5667 5665 5664 5662 5660 5659 5657 5656 5654 5653 5652 5651
5687 5684 5681 5678 5677 5675 5674 5673 5672 5672 5672 5672 5671 5670 5671 5671 5670 5669 5668 5667 5667 5667 5666 5661 5661 5661 5662 5659 5658 5657 5655 5653 5651 5650 5648 5647 5646 5645
5682 5679 5676 5672 5670 5668 5667 5665 5665 5665 5665 5666 5665 5665 5664 5664 5664 5662 5660 5658 5656 5657 5659 5656 5655 5655 5654 5653 5652 5650 5649 5647 5645 5644 5642 5641 5640 5639
5675 5673 5670 5667 5664 5661 5659 5658 5656 5656 5657 5658 5658 5658 5658 5658 5657 5656 5654 5652 5651 5650 5652 5651 5649 5648 5645 5647 5646 5643 5642 5641 5640 5638 5637 5636 5635 5633
5669 5667 5665 5661 5657 5655 5652 5651 5650 5649 5650 5651 5651 5652 5652 5651 5652 5651 5650 5649 5646 5645 5648 5646 5643 5642 5640 5638 5639 5638 5636 5635 5634 5633 5632 5631 5630 5629
5662 5661 5658 5655 5652 5649 5647 5646 5645 5644 5644 5644 5645 5645 5645 5645 5646 5646 5645 5645 5644 5643 5643 5641 5639 5637 5635 5632 5632 5633 5632 5631 5630 5629 5628 5627 5626 5624
5655 5653 5651 5648 5646 5644 5642 5640 5639 5638 5638 5637 5637 5638 5639 5640 5640 5639 5639 5639 5639 5639 5638 5637 5635 5634 5631 5629 5628 5628 5627 5627 5626 5625 5624 5623 5622 5621
5647 5645 5644 5642 5640 5638 5637 5635 5634 5634 5632 5631 5631 5631 5632 5632 5632 5632 5631 5631 5630 5631 5632 5632 5631 5629 5626 5626 5625 5624 5623 5622 5622 5621 5621 5620 5619 5618
5641 5639 5638 5636 5635 5634 5633 5632 5631 5629 5627 5626 5625 5624 5624 5625 5625 5626 5625 5624 5623 5623 5624 5625 5625 5624 5623 5621 5619 5619 5619 5618 5618 5617 5615 5614 5614 5613
5634 5633 5632 5631 5629 5628 5626 5626 5625 5624 5623 5622 5620 5619 5618 5618 5618 5619 5619 5618 5617 5617 5618 5618 5618 5616 5615 5616 5616 5615 5614 5613 5613 5612 5610 5608 5608 5609
5628 5628 5627 5625 5623 5622 5621 5619 5618 5617 5617 5616 5614 5614 5613 5613 5613 5613 5612 5612 5611 5612 5612 5612 5611 5609 5606 5606 5610 5610 5608 5606 5606 5606 5605 5604 5604 5605
5626 5623 5620 5618 5617 5615 5614 5612 5611 5611 5610 5609 5609 5609 5608 5608 5607 5607 5607 5606 5606 5605 5606 5606 5606 5605 5603 5602 5603 5604 5603 5602 5601 5600 5600 5600 5599 5600
5621 5617 5615 5612 5610 5609 5607 5606 5605 5604 5604 5603 5602 5602 5602 5602 5601 5602 5601 5600 5599 5599 5599 5600 5601 5601 5600 5599 5597 5598 5598 5597 5597 5595 5595 5593 5593 5593
5615 5612 5609 5607 5605 5603 5601 5600 5599 5598 5597 5596 5595 5595 5595 5595 5595 5595 5594 5594 5593 5594 5594 5595 5596 5595 5594 5592 5592 5592 5592 5592 5592 5591 5591 5591 5590 5588
5610 5607 5605 5603 5600 5598 5596 5595 5594 5592 5590 5589 5587 5587 5587 5587 5588 5588 5588 5588 5587 5587 5587 5588 5588 5589 5589 5588 5588 5587 5587 5587 5587 5586 5585 5587 5587 5587